Tracking 30995 objects as of 5-Jul-2025
HD Live streaming from Space Station
objects crossing your sky now

COSMOS 2491 DEB

Track COSMOS 2491 DEB now!
10-day predictions


NORAD ID: 44998
Int'l Code: 2013-076T
Perigee: 1,324.7 km
Apogee: 1,485.6 km
Inclination: 82.5 °
Period: 113.7 minutes
Semi major axis: 7776 km
RCS: Unknown
Launch date: December 25, 2013
Source: Commonwealth of Independent States (former USSR) (CIS)
Launch site: PLESETSK MISSILE AND SPACE COMPLEX (PKMTR)

Note: This is SATELLITE DEBRIS
Your satellite tracking list
Your tracking list is empty




NASA's NSSDC Master Catalog

Two Line Element Set (TLE):
1 44998U 13076S   25185.10265182  .00002065  00000-0  10698-1 0  9995
2 44998  82.4729 338.0089 0103445 228.6737 130.5420 12.66067830253218
Source of the keplerian elements: AFSPC